GSLV R/B

基本信息
目录编号:
54149
目录名称:
GSLV R/B
国际标识:
2022-138AN
轨道中心:
EARTH
物体状态:
在轨
发射日期:
2022-10-22 UTC
国别:
印度 (IN)
轨道信息
数据来源: 国际轨道数据
星历时间: 2026-07-14T04:24:22+0800
半长轴: 6953.136km
偏心率: 0.0023676
轨道倾角: 87.382°
近地点辐角: 56.609°
升交点赤经: 124.031°
平近点角: 303.740°
近地点: 558.536km
远地点: 591.462km
周期: 96.168分钟
每日圈数: 14.973789
详细信息
发射场:
SRI
轨道高度:
LEO
数据来源:
AOE Integration Group
参考系:
TEME
时间系统:
UTC
历元类型:
SGP4
2D轨道图
3D轨道图
轨道高度分析图
轨道倾角分析图
轨道综合分析图
查看轨道综合分析图